{"data":{"norad_id":57476,"intl_designator":"2023-107V","name":"STARLINK-30161","alt_names":[],"object_type":"PAYLOAD","status":"ACTIVE","operator":null,"country":"US","launch_date":"2023-07-28","launch_site_code":"AFETR","launch_vehicle":null,"mission":null,"orbit_class":"UNKNOWN","rcs_meters":null,"size_class":null,"mass_kg":null,"dimensions":null,"purposes":["comms"],"wikipedia_slug":null,"has_3d_model":false,"image_url":null,"decayed_at":null,"tle_current":{"epoch":"2026-09-20T04:03:40.643424Z","epoch_age_seconds":156527,"freshness":"FRESH","line1":"1 57476U 23107V   26263.16922041  .00000801  00000+0  38627-4 0  9994","line2":"2 57476  43.0017 317.4912 0001880 266.6753  93.3884 15.27574596174890","mean_motion":15.27574596,"eccentricity":0.000188,"inclination_deg":43.0017,"raan_deg":317.4912,"arg_perigee_deg":266.6753,"mean_anomaly_deg":93.3884,"bstar":3.8627e-5,"rev_number":17489,"period_min":94.267082194918,"perigee_km":481.77537157925,"apogee_km":484.35518363563,"semimajor_km":6861.2022776074,"source":"CELESTRAK","updated_at":"2026-09-21T09:00:33.631587Z"}}}